Printer-friendly version

IAU Minor Planet Center

Minor Planet Center

MPEC 2006-D41 : 2006 DQ14

The following Minor Planet Electronic Circular may be linked-to from your own Web pages, but must not otherwise be redistributed electronically.


Read MPEC 2006-D40 Read MPEC 2006-D42


M.P.E.C. 2006-D41                                Issued 2006 Feb. 25, 15:14 UT

     The Minor Planet Electronic Circulars contain information on unusual
         minor planets and routine data on comets.  They are published
   on behalf of Commission 20 of the International Astronomical Union by the
          Minor Planet Center, Smithsonian Astrophysical Observatory,
                          Cambridge, MA 02138, U.S.A.

                  Supported in part by the Brinson Foundation
                  Supported in part by the TABASGO Foundation
             Prepared using the Tamkin Foundation Computer Network

                              MPC@CFA.HARVARD.EDU
          URL http://cfa-www.harvard.edu/iau/mpc.html  ISSN 1523-6714

                                   2006 DQ14

Observations:
     K06D14Q* C2006 02 23.26402 09 31 48.63 +03 20 45.0          18.7 R ED041699
     K06D14Q  C2006 02 23.28686 09 31 58.10 +03 31 46.2                 ED041699
     K06D14Q  C2006 02 23.30968 09 32 07.81 +03 42 45.7                 ED041699
     K06D14Q  C2006 02 23.33252 09 32 17.43 +03 53 48.6                 ED041699
     K06D14Q  C2006 02 24.28414 09 42 25.17 +11 18 49.7          19.0   ED041704
     K06D14Q  C2006 02 24.29590 09 42 29.94 +11 24 06.8          18.7   ED041704
     K06D14Q  C2006 02 24.30768 09 42 34.53 +11 29 23.1          18.4   ED041704
     K06D14Q  C2006 02 24.31944 09 42 39.45 +11 34 38.8          19.1   ED041704
     K06D14Q  C2006 02 24.33118 09 42 44.16 +11 39 51.6          19.6   ED041704
     K06D14Q  C2006 02 24.35594 09 42 56.70 +11 51 06.5          18.7 V ED041G96
     K06D14Q  C2006 02 24.35619 09 42 56.80 +11 51 12.8          18.5 V ED041G96
     K06D14Q  C2006 02 24.35644 09 42 56.91 +11 51 19.6          18.2 V ED041G96
     K06D14Q  C2006 02 24.35668 09 42 57.02 +11 51 25.9          18.1 V ED041G96
     K06D14Q  C2006 02 24.42372 09 43 26.72 +12 20 49.9          19.1 V ED041G96
     K06D14Q  C2006 02 24.42398 09 43 26.83 +12 20 56.6          19.3 V ED041G96
     K06D14Q  C2006 02 24.42422 09 43 26.94 +12 21 02.8          19.0 V ED041G96
     K06D14Q  C2006 02 24.42448 09 43 27.08 +12 21 09.6          18.7 V ED041G96
     K06D14Q  C2006 02 25.19664 09 51 54.98 +17 50 11.1          18.3 R ED041734
     K06D14Q  C2006 02 25.19944 09 51 56.10 +17 51 19.7          18.9 R ED041734
     K06D14Q  C2006 02 25.20363 09 51 57.74 +17 53 00.3          18.4 R ED041734
     K06D14Q  C2006 02 25.24411 09 52 23.01 +18 10 33.4          18.6 V ED041G96
     K06D14Q  C2006 02 25.24441 09 52 23.16 +18 10 40.8          18.5 V ED041G96
     K06D14Q  C2006 02 25.24472 09 52 23.26 +18 10 48.6          18.4 V ED041G96
     K06D14Q  C2006 02 25.24502 09 52 23.37 +18 10 55.9          18.4 V ED041G96
     K06D14Q  C2006 02 25.35440 09 53 04.95 +18 54 57.9          18.4 R ED041651
     K06D14Q  C2006 02 25.35507 09 53 05.20 +18 55 13.7          18.3 R ED041651
     K06D14Q  C2006 02 25.35573 09 53 05.48 +18 55 29.4          18.2 R ED041651

Observer details:
651 Grasslands Observatory, Tucson.  Observer J. E. McGaha.  0.62-m f/5.1
    Newtonian reflector + CCD.
699 Lowell Observatory-LONEOS.  Observer B. A. Skiff.  0.59-m LONEOS Schmidt
    + CCD.
704 Lincoln Laboratory ETS, New Mexico.  Observers M. Bezpalko, L. Manguso,
    D. Torres, R. Kracke, M. Blythe, H. Love.  Measurers J. Stuart, J. Kommers.
    1.0-m f/2.15 reflector + CCD.
734 Farpoint Observatory.  Observer G. Hug.  0.7-m reflector + CCD.
G96 Mt. Lemmon Survey.  Observer E. J. Christensen.  Measurers E. C. Beshore,
    E. J. Christensen, G. J. Garradd, A. D. Grauer, R. E. Hill, R. A. Kowalski,
    S. M. Larson, R. H. McNaught, A. R. Gibbs.  1.5-m reflector + CCD.

Orbital elements:
2006 DQ14                                                Earth MOID = 0.0133 AU
Epoch 2006 Mar. 6.0 TT = JDT 2453800.5                  MPC
M  71.50501              (2000.0)            P               Q
n   0.94733198     Peri.  291.83313     +0.04349026     -0.99801125
a   1.0267576      Node   155.54001     +0.95248810     +0.02763830
e   0.0535634      Incl.    6.32704     +0.30145483     +0.05665401
P   1.04           H   27.1           G   0.15           U   5
Residuals in seconds of arc
060223 699 (2.1+  0.0 )   060224 G96  0.0   0.1+    060225 734  0.2-  0.5+
060223 699  0.5+  1.3-    060224 G96  0.1-  0.2-    060225 734 (1.0-  2.5-)
060223 699 (2.5+  2.4-)   060224 G96  0.0   0.0     060225 G96  0.1+  0.6-
060223 699  1.2+  0.9+    060224 G96  0.1+  0.1-    060225 G96  0.6+  0.6-
060224 704  1.2-  0.1-    060224 G96  0.3+  0.1-    060225 G96  0.3+  0.4-
060224 704  0.3-  0.3+    060224 G96  0.1+  0.2-    060225 G96  0.2+  0.5-
060224 704 (2.6-  0.3+)   060224 G96  0.0   0.2-    060225 651 (0.2-  3.9-)
060224 704  0.4-  1.1+    060224 G96  0.3+  0.2-    060225 651 (0.4-  3.9-)
060224 704  2.0-  0.5+    060225 734  0.0   1.2+    060225 651 (0.2-  3.8-)

Ephemeris:
2006 DQ14                a,e,i = 1.03, 0.05, 6                   q = 0.9718
Date    TT    R. A. (2000) Decl.     Delta      r     Elong.  Phase     V
2006 02 24    09 39.50   +09 13.3    0.0139   1.003   168.1    11.8    18.5
2006 02 25    09 49.76   +16 32.5    0.0146   1.004   167.5    12.4    18.7
2006 02 26    09 59.66   +23 04.2    0.0155   1.005   163.4    16.3    18.9
2006 02 27    10 09.16   +28 44.6    0.0167   1.006   158.6    21.1    19.3
2006 02 28    10 18.27   +33 35.7    0.0180   1.007   153.9    25.6    19.6
2006 03 01    10 26.96   +37 42.2    0.0194   1.008   149.7    29.7    19.8
2006 03 02    10 35.24   +41 10.1    0.0210   1.008   146.0    33.3    20.1
2006 03 03    10 43.10   +44 05.4    0.0226   1.009   142.8    36.4    20.4
2006 03 04    10 50.56   +46 33.4    0.0243   1.010   140.0    39.1    20.6
2006 03 05    10 57.62   +48 38.6    0.0260   1.011   137.6    41.4    20.8
2006 03 06    11 04.29   +50 24.9    0.0278   1.012   135.4    43.5    21.0
2006 03 07    11 10.58   +51 55.4    0.0297   1.013   133.5    45.3    21.2
2006 03 08    11 16.51   +53 12.8    0.0315   1.014   131.8    46.8    21.4
2006 03 09    11 22.08   +54 19.1    0.0334   1.015   130.3    48.2    21.6
2006 03 10    11 27.33   +55 16.0    0.0353   1.016   129.0    49.5    21.7
2006 03 11    11 32.26   +56 04.9    0.0372   1.016   127.8    50.6    21.9
2006 03 12    11 36.88   +56 47.1    0.0391   1.017   126.7    51.6    22.0
2006 03 13    11 41.21   +57 23.3    0.0411   1.018   125.7    52.4    22.1
2006 03 14    11 45.28   +57 54.6    0.0430   1.019   124.8    53.3    22.3
2006 03 15    11 49.09   +58 21.4    0.0449   1.020   123.9    54.0    22.4
2006 03 16    11 52.65   +58 44.4    0.0469   1.021   123.1    54.7    22.5

Brian G. Marsden             (C) Copyright 2006 MPC           M.P.E.C. 2006-D41

Read MPEC 2006-D40 Read MPEC 2006-D42


Our Web policy. Index to the CBAT/MPC/ICQ pages.


Valid HTML 4.01!